Location: Colle Santa Colomba
(42.0333°N, 12.5667°E)
Time: 03:39:48
(UTC+00:00)

CZ-2C R/B - Pass Details

Date: 25 October 2021
Orbit: 784 x 871 km, 98.2° (Epoch: 28 November)

Event Time Altitude Azimuth Distance (km) Brightness Sun altitude
Rises 18:21:55 0° 3° (N) 3,460 5.9 -24.6°
Reaches altitude 10° 18:24:33 10° 354° (N) 2,511 5.3 -25.0°
Maximum altitude 18:29:25 32° 294° (WNW) 1,432 4.4 -25.9°
Drops below altitude 10° 18:34:11 10° 233° (SW) 2,456 5.6 -26.8°
Sets 18:36:44 0° 223° (SW) 3,373 6.3 -27.3°
